Location: Brachbach
(49.1847°N, 9.7240°E)
Time: 05:46:29
(UTC+00:00)

PCSat - Pass Details

Date: 14 March 2026
Orbit: 780 x 790 km, 67.1° (Epoch: 13 April)

Event Time Altitude Azimuth Distance (km) Brightness Sun altitude
Exits shadow 01:03:01 16° 351° (N) 1,989 12.0 -39.4°
Drops below altitude 10° 01:05:20 10° 16° (NNE) 2,364 12.7 -39.2°
Sets 01:08:42 0° 37° (NE) 3,296 13.7 -38.9°
